Location: D�pe
(52.6057°N, 8.1808°E)
Time: 06:38:19
(UTC+00:00)

GENESIS II - Pass Details

Date: 29 October 2020
Orbit: 490 x 536 km, 64.5° (Epoch: 01 December)

Event Time Altitude Azimuth Distance (km) Brightness Sun altitude
Rises 16:36:58 0° 212° (SSW) 2,676 8.6 -5.8°
Reaches altitude 10° 16:39:09 10° 209° (SSW) 1,791 7.6 -6.2°
Maximum altitude 16:43:08 62° 129° (SE) 607 4.4 -6.7°
Drops below altitude 10° 16:47:08 10° 49° (NE) 1,801 6.4 -7.3°
Enters shadow 16:47:53 - 47° (NE) 2,101 6.8 -7.5°
